Simultaneous Nadir Overpasses (SNOs) Predictions

Prediction of SNOs between METOP-C and LANDSAT-8 Satellite Orbit:

Table of predicted SNOs for the next 14.0 days since TLE Epoch: 11/2/2024
Index Date (METOP-C) Time (METOP-C) Lat,Lon (METOP-C) SZA (METOP-C ) Date (LANDSAT-8) Time (LANDSAT-8) Lat,Lon (LANDSAT-8) SZA (LANDSAT-8 ) Distance(km) Time Diff (sec)
1 11/04/2024 12:20:53 81.10, 34.15 99.04 11/04/2024 12:21:56 81.10, 34.15 99.07 0.46 63
2 11/04/2024 13:11:33 -81.12,-158.02 80.89 11/04/2024 13:11:22 -81.13,-157.86 80.87 2.90 11
3 11/07/2024 07:55:14 81.08, 99.99 99.80 11/07/2024 07:56:20 81.08, 100.17 99.84 3.02 66
4 11/07/2024 08:45:52 -81.12, -91.39 80.03 11/07/2024 08:45:45 -81.13, -91.45 80.04 0.95 7
5 11/10/2024 03:29:32 81.10, 167.03 100.67 11/10/2024 03:30:45 81.10, 166.87 100.69 2.84 73
6 11/10/2024 04:20:12 -81.12, -25.07 79.25 11/10/2024 04:20:11 -81.13, -25.07 79.25 0.56 1
7 11/10/2024 05:10:41 81.24, 146.47 101.30 11/10/2024 05:09:27 81.35, 146.39 101.33 11.93 74
8 11/12/2024 23:54:31 -81.12, 41.34 78.50 11/12/2024 23:54:39 -81.12, 41.26 78.50 1.35 8
9 11/13/2024 00:45:10 81.13,-150.99 101.56 11/13/2024 00:44:05 81.13,-151.04 101.52 0.99 65
10 11/15/2024 19:28:49 -81.11, 107.44 77.83 11/15/2024 19:29:08 -81.12, 107.55 77.81 1.99 19



Historial Predications of SNOs between METOP-C and LANDSAT-8
